星链-32798 (STARLINK-32798)

导读

STARLINK-32798是美国于2025年2月18日发射的SpaceX星链系列卫星。星链计划旨在构建全球卫星互联网星座,为全球偏远地区、海洋空域等提供低延迟宽带网络服务,该卫星延续了星链卫星的设计方案,用于补充和完善星链星座的网络覆盖能力,服务全球用户的互联网接入需求。

基本信息
目录编号:
63029
目录名称:
STARLINK-32798
国际标识:
2025-034A
轨道中心:
EARTH
卫星名称:
星链-32798
卫星全名:
星链-32798 (STARLINK-32798)
卫星状态:
在轨 (已飞行564 天)
发射日期:
2025-02-18 UTC
国别 :
美国 (US)
星等 :
--
轨道信息
数据来源 国际轨道数据
星历时间: 2026-09-04T13:38:06+0800
1天前
查看轨道信息
半长轴: 6840.83km
偏心率: 0.0001287
轨道倾角: 53.158°
近地点辐角 92.208°
升交点赤经 159.409°
平近点角 267.907°
近地点: 461.812km
远地点: 463.574km
周期: 93.848分钟
每日圈数: 15.344036
详细信息
固有亮度:
5
最大亮度:
2.5
卫星平台:
Starlink V1.0
覆盖范围:
全球
运营商:
太空探索技术公司
运营商所在国:
美国
制造商(研发单位):
太空探索技术公司
制造商所在国:
美国
使用方式:
暂无
卫星简介
Starlink 计划是 SpaceX 推出的全球卫星互联网项目,通过发射低轨道卫星,为全球尤其是偏远地区提供高速、低延迟的互联网服务。自 2019 年起,Starlink 已部署数千颗卫星,旨在缩小全球数字鸿沟,推动互联网普及。该项目还为军事、航空等行业提供通信支持,带来广泛经济效益。
2D轨道图
3D轨道图
轨道高度分析图
轨道倾角分析图
轨道综合分析图
查看轨道综合分析图
交会数据列表
事件ID 空间交会对象 最接近时刻(TCA) 交会距离 交会风险概率(CRP) 交会风险指数(CRI) 操作
CDM_260905-221104-765506-302923
2026-09-05T
22:11:18+0000
1.643 km
极远距离
4.336413E-6 低风险 0.48
CDM_260906-051806-048506-302922
2026-09-06T
05:18:41+0000
2.541 km
极远距离
1.704362E-6 低风险 0.4
CDM_260906-231305-250106-302922
2026-09-06T
23:13:14+0000
2.611 km
极远距离
1.443614E-6 低风险 0.38
CDM_260905-180804-735106-302921
2026-09-05T
18:08:26+0000
2.423 km
极远距离
1.437098E-6 低风险 0.38
CDM_260907-003705-419106-302921
2026-09-07T
00:37:31+0000
2.856 km
极远距离
1.114762E-6 低风险 0.36
CDM_260906-111305-262006-302921
2026-09-06T
11:13:04+0000
2.851 km
极远距离
6.387759E-7 极低风险 0.31